This is the latest recevied weather packets stored in our database for station/object WD7CGF. If no packets are shown the sender has not sent any weather packets the latest 10 day(s).
| Time | Temp. | Humidity | Pressure | Rain* | Wind** | Luminosity | Snow |
|---|---|---|---|---|---|---|---|
| 1777830521 | 21.67° C | 49% | 1013.7 hPa | 0 mm | - | - | - |
| 1777829916 | 21.67° C | 51% | 1013.8 hPa | 0 mm | - | - | - |
| 1777829307 | 21.11° C | 50% | 1014 hPa | 0 mm | - | - | - |
| 1777828720 | 20.56° C | 51% | 1014 hPa | 0 mm | - | - | - |
| 1777828132 | 20° C | 56% | 1014 hPa | 0 mm | - | - | - |
| 1777827531 | 19.44° C | 55% | 1014.2 hPa | 0 mm | - | - | - |
| 1777826918 | 19.44° C | 54% | 1014.2 hPa | 0 mm | - | - | - |
| 1777826324 | 18.33° C | 58% | 1014.5 hPa | 0 mm | - | - | - |
| 1777825716 | 17.78° C | 57% | 1014.5 hPa | 0 mm | - | - | - |
| 1777825127 | 17.78° C | 58% | 1014.5 hPa | 0 mm | - | - | - |
| 1777824522 | 17.22° C | 59% | 1014.5 hPa | 0 mm | - | - | - |
| 1777823915 | 17.22° C | 61% | 1014.5 hPa | 0 mm | - | - | - |
| 1777823325 | 17.22° C | 60% | 1014.5 hPa | 0 mm | - | - | - |
| 1777822720 | 16.67° C | 62% | 1014.8 hPa | 0 mm | - | - | - |
| 1777822111 | 15.56° C | 63% | 1014.9 hPa | 0 mm | - | - | - |
| 1777821524 | 15° C | 66% | 1014.9 hPa | 0 mm | - | - | - |
| 1777820913 | 14.44° C | 66% | 1014.6 hPa | 0 mm | - | - | - |
| 1777820323 | 15° C | 64% | 1014.6 hPa | 0 mm | - | - | - |
| 1777819718 | 14.44° C | 65% | 1014.6 hPa | 0 mm | - | - | - |
| 1777819129 | 13.33° C | 69% | 1014.8 hPa | 0 mm | - | - | - |
| 1777818519 | 12.22° C | 77% | 1015.1 hPa | 0 mm | - | - | - |
| 1777817326 | 9.44° C | 85% | 1015 hPa | 0 mm | - | - | - |
| 1777816718 | 8.33° C | 89% | 1015.4 hPa | 0 mm | - | - | - |
| 1777816110 | 6.67° C | 90% | 1015.4 hPa | 0 mm | - | - | - |
| 1777815522 | 6.11° C | 89% | 1015.4 hPa | 0 mm | - | - | - |
* Rain latest hour (hover to see other rain measurements)
** Current wind speed in m/s (hover to see current wind gust speed)